991  
NZUS93 KARX 220010  
HRRWXR  
 
CURRENT HOURLY OBSERVATIONS ACROSS  
MUCH OF THE UPPER MISSISSIPPI VALLEY  
NATIONAL WEATHER SERVICE LA CROSSE WI  
700 PM CDT FRI JUN 21 2024  
 
   
..SOUTHEAST MINNESOTA
 
 
 
CITY SKY/WX TMP DP RH WIND PRES REMARKS  
ROCHESTER CLOUDY 72 69 90 E5 30.03F  
WINONA CLOUDY 70 68 94 SE6 30.04F  
AUSTIN CLOUDY 73 72 94 E6 30.01F  
ALBERT LEA CLOUDY 73 70 88 E6 30.01F  
DODGE CENTER CLOUDY 72 70 94 E7 30.03F  
PRESTON CLOUDY 72 72 100 SE10 30.04F  
OWATONNA PTSUNNY 73 68 83 E9 30.01F  
FARIBAULT PTSUNNY 72 68 88 NE6 30.02F  

 
   
..ELSEWHERE IN MINNESOTA
 
 
 
CITY SKY/WX TMP DP RH WIND PRES REMARKS  
MINNEAPOLIS CLOUDY 69 65 86 E9 30.04F  
INTNL FALLS PTSUNNY 73 53 49 VRB5 30.10F  
DULUTH CLOUDY 63 52 67 E7 30.12F  
RED WING LGT RAIN 70 66 88 E8 30.02F  
REDWOOD FALLS LGT RAIN 68 66 93 E9 29.99F  
MANKATO PTSUNNY 71 69 93 E10 30.01F  
WORTHINGTON HVY RAIN 72 72 100 E10 29.97F FOG  
FAIRMONT PTSUNNY 74 70 87 E12 29.99F  

 
   
..SOUTHWEST WISCONSIN
 
 
 
CITY SKY/WX TMP DP RH WIND PRES REMARKS  
LA CROSSE SUNNY 73 68 83 SE7 30.03F  
PRAIRIE DU CHI PTSUNNY 77 70 80 NW16G22 30.03R  
BOSCOBEL CLOUDY 77 69 76 E10G25 30.03S  
LONE ROCK NOT AVBL  
PLATTEVILLE SUNNY 85 69 60 S9 30.05S  
FORT MC COY CLOUDY 70 69 99 CALM 30.03F  
CAMP DOUGLAS CLOUDY 69 68 94 NE6 30.04F  
MAUSTON-NEW LI RAIN 69 69 100 E7 30.07F  
WIS DELLS LGT RAIN 73 72 98 NE8 30.09R  

 
   
..ELSEWHERE IN WISCONSIN
 
 
 
CITY SKY/WX TMP DP RH WIND PRES REMARKS  
MILWAUKEE CLOUDY 66 63 90 N7 30.10S FOG  
MADISON PTSUNNY 74 71 91 E5 30.05F  
GREEN BAY CLOUDY 66 61 84 NE14 30.13F  
EAU CLAIRE CLOUDY 67 64 90 E7 30.07S  
BLACK RVR FLS CLOUDY 69 69 100 E3 30.06S  
MEDFORD CLOUDY 62 58 88 E5 30.12F  
WAUSAU LGT RAIN 63 62 97 E7 30.12S  
WIS RAPIDS LGT RAIN 65 63 93 E9 30.10F  
MARSHFIELD CLOUDY 63 62 97 E9 30.10F  
RICE LAKE CLOUDY 67 63 87 E6 30.11F  

 
   
..NORTHEAST IOWA
 
 
 
CITY SKY/WX TMP DP RH WIND PRES REMARKS  
WATERLOO MOSUNNY 88 71 57 S9 29.98F HX 94  
DUBUQUE SUNNY 85 71 63 S13 30.04F HX 90  
DECORAH PTSUNNY 70 70 100 NE10G20 30.03F  
MASON CITY MOSUNNY 74 72 93 E6 30.01F  
CHARLES CITY MOSUNNY 73 73 100 NE12 30.01F  
OELWEIN SUNNY 84 72 65 CALM 30.02F  

 
   
..ELSEWHERE IN IOWA
 
 
 
CITY SKY/WX TMP DP RH WIND PRES REMARKS  
DES MOINES MOSUNNY 87 71 58 S13G23 29.99F HX 93  
IOWA CITY SUNNY 88 71 57 SW7 30.03F HX 94  
FORT DODGE MOSUNNY 85 72 65 S14G22 29.96F HX 91  
MARSHALLTOWN SUNNY 87 72 60 SW12 29.98F HX 93  
CEDAR RAPIDS SUNNY 86 72 62 S8 30.02F HX 92  

 
   
..NORTHERN ILLINOIS
 
 
 
CITY SKY/WX TMP DP RH WIND PRES REMARKS  
CHICAGO-OHARE PTSUNNY 91 62 37 SW8G20 30.06S HX 91  
CHICAGO-MIDWAY MOSUNNY 91 61 36 SW13G22 30.06S HX 91  
MOLINE MOSUNNY 89 69 51 SW8 30.03S HX 93  
ROCKFORD MOSUNNY 88 67 49 S10 30.07S HX 91  
PEORIA MOSUNNY 89 68 49 S9 30.07S HX 93  

 
 
NOTE: "FAIR" INDICATES FEW OR NO CLOUDS BELOW 12,000 FEET WITH NO  
SIGNIFICANT WEATHER AND/OR OBSTRUCTIONS TO VISIBILITY. WIND  
SPEEDS ARE IN MILES-PER-HOUR.  
 
 
CLICK HERE TO GO TO PREVIOUS BULLETINS.

The Nexlab WI Page
The Nexlab IA Page
The Nexlab MN Page Main Text Page